TimeCDT,TemperatureF,Dew PointF,Humidity,Sea Level PressureIn,VisibilityMPH,Wind Direction,Wind SpeedMPH,Gust SpeedMPH,PrecipitationIn,Events,Conditions,WindDirDegrees,DateUTC
12:53 AM,73.9,60.1,62,29.73,10.0,South,16.1,24.2,N/A,,Scattered Clouds,170,2013-09-28 05:53:00
1:53 AM,73.9,60.1,62,29.71,10.0,SSE,13.8,23.0,N/A,,Partly Cloudy,160,2013-09-28 06:53:00
2:53 AM,73.0,59.0,61,29.69,10.0,SSE,12.7,20.7,N/A,,Overcast,160,2013-09-28 07:53:00
3:53 AM,71.1,59.0,66,29.67,10.0,South,10.4,21.9,N/A,,Scattered Clouds,170,2013-09-28 08:53:00
4:53 AM,70.0,59.0,68,29.65,10.0,SSE,15.0,24.2,N/A,,Scattered Clouds,150,2013-09-28 09:53:00
5:53 AM,69.1,57.9,68,29.63,10.0,SSE,12.7,25.3,N/A,,Mostly Cloudy,160,2013-09-28 10:53:00
6:53 AM,68.0,57.9,70,29.60,10.0,SSE,12.7,23.0,N/A,,Scattered Clouds,150,2013-09-28 11:53:00
7:53 AM,66.9,59.0,76,29.60,10.0,South,17.3,24.2,0.00,Rain,Light Rain,170,2013-09-28 12:53:00
8:16 AM,64.4,60.8,88,29.60,10.0,SSE,13.8,20.7,0.04,Rain,Light Rain,160,2013-09-28 13:16:00
8:53 AM,64.9,61.0,87,29.57,10.0,SSE,12.7,-,0.08,Rain,Light Rain,150,2013-09-28 13:53:00
9:53 AM,64.0,61.0,90,29.55,10.0,SSE,11.5,-,0.05,Rain,Light Rain,160,2013-09-28 14:53:00
10:12 AM,64.4,60.8,88,29.56,10.0,South,12.7,-,0.01,Rain,Light Rain,170,2013-09-28 15:12:00
10:36 AM,60.8,55.4,82,29.58,10.0,WSW,18.4,26.5,0.02,Rain,Light Rain,250,2013-09-28 15:36:00
10:40 AM,59.0,55.4,88,29.59,10.0,WSW,18.4,25.3,0.02,Rain,Light Rain,250,2013-09-28 15:40:00
10:53 AM,57.9,55.0,90,29.59,10.0,WSW,15.0,-,0.08,Rain,Rain,250,2013-09-28 15:53:00
11:14 AM,55.4,51.8,88,29.61,10.0,West,15.0,23.0,0.10,Rain,Rain,260,2013-09-28 16:14:00
11:33 AM,55.4,53.6,94,29.62,10.0,West,10.4,-,0.19,Rain,Rain,270,2013-09-28 16:33:00
11:48 AM,55.4,51.8,88,29.63,10.0,West,18.4,24.2,0.23,Rain,Heavy Rain,260,2013-09-28 16:48:00
11:53 AM,54.0,50.0,86,29.63,10.0,West,18.4,28.8,0.24,Rain,Light Rain,270,2013-09-28 16:53:00
11:58 AM,53.6,50.0,88,29.65,10.0,West,13.8,28.8,0.01,Rain,Light Rain,270,2013-09-28 16:58:00
12:44 PM,53.6,50.0,88,29.67,10.0,West,16.1,25.3,0.07,Rain,Light Rain,270,2013-09-28 17:44:00
12:53 PM,54.0,50.0,86,29.67,10.0,West,12.7,-,0.08,Rain,Light Rain,270,2013-09-28 17:53:00
1:53 PM,55.9,51.1,84,29.69,10.0,West,15.0,-,0.02,,Mostly Cloudy,270,2013-09-28 18:53:00
2:39 PM,57.2,48.2,72,29.70,10.0,West,12.7,26.5,N/A,,Mostly Cloudy,260,2013-09-28 19:39:00
2:53 PM,57.9,48.0,70,29.70,10.0,West,18.4,23.0,N/A,,Overcast,260,2013-09-28 19:53:00
3:53 PM,57.0,46.0,67,29.75,10.0,West,17.3,24.2,N/A,,Overcast,270,2013-09-28 20:53:00
4:06 PM,55.4,46.4,72,29.75,10.0,West,13.8,-,N/A,,Overcast,270,2013-09-28 21:06:00
4:29 PM,55.4,48.2,77,29.76,10.0,West,11.5,-,0.00,,Overcast,270,2013-09-28 21:29:00
4:51 PM,55.4,46.4,72,29.77,10.0,West,11.5,-,0.00,Rain,Light Rain,270,2013-09-28 21:51:00
4:53 PM,55.9,46.9,72,29.77,10.0,West,12.7,-,0.00,,Overcast,270,2013-09-28 21:53:00
5:32 PM,55.4,46.4,72,29.79,10.0,West,10.4,-,N/A,,Overcast,260,2013-09-28 22:32:00
5:53 PM,55.9,45.0,67,29.80,10.0,West,13.8,-,N/A,,Mostly Cloudy,260,2013-09-28 22:53:00
6:53 PM,55.0,43.0,64,29.85,10.0,West,8.1,17.3,N/A,,Scattered Clouds,270,2013-09-28 23:53:00
7:53 PM,52.0,43.0,71,29.88,10.0,West,6.9,-,N/A,,Clear,270,2013-09-29 00:53:00
8:53 PM,46.9,42.1,83,29.88,10.0,Calm,Calm,-,N/A,,Clear,0,2013-09-29 01:53:00
9:53 PM,46.0,42.1,86,29.88,10.0,Calm,Calm,-,N/A,,Clear,0,2013-09-29 02:53:00
10:53 PM,44.1,41.0,89,29.89,10.0,South,3.5,-,N/A,,Clear,190,2013-09-29 03:53:00
11:53 PM,46.9,42.1,83,29.90,10.0,SSW,5.8,-,N/A,,Clear,200,2013-09-29 04:53:00